This demonstration page uses our WeatherBlox Daily Observations layout. Learn more.

Left ArrowRight Arrow

39.29038, -76.61219

Hourly Observations for February 17, 2017

Temp ( °F °C ) Dew Point ( °F °C ) Humidity (%) Winds ( mph kmh ) Pressure ( in mb ) Visibility ( mi km ) Precip ( " mm )
12:54 am 00:54 undefined 31 -0.6 15 -9.4 52 52 undefined N/A 29.93 1014 N/A 0.00 0.00
1:54 am 01:54 undefined 31 -0.6 15 -9.4 52 52 undefined N/A 29.94 1014 N/A 0.00 0.00
2:54 am 02:54 undefined 30 -1.1 15 -9.4 54 54 undefined N/A 29.94 1014 N/A 0.00 0.00
3:54 am 03:54 undefined 29 -1.7 15 -9.4 56 56 undefined N/A 29.93 1014 N/A 0.00 0.00
4:54 am 04:54 undefined 29 -1.7 15 -9.4 56 56 undefined N/A 29.95 1014 N/A 0.00 0.00
5:54 am 05:54 undefined 29 -1.7 15 -9.4 56 56 undefined N/A 29.96 1015 N/A 0.00 0.00
6:54 am 06:54 undefined 29 -1.7 15 -9.4 56 56 undefined N/A 29.96 1015 N/A 0.00 0.00
7:54 am 07:54 undefined 30 -1.1 15 -9.4 54 54 undefined N/A 29.97 1015 N/A 0.00 0.00
8:54 am 08:54 undefined 33 0.6 16 -8.9 49 49 undefined N/A 29.97 1015 N/A 0.00 0.00
9:54 am 09:54 undefined 36 2.2 15 -9.4 42 42 undefined N/A 29.98 1015 N/A 0.00 0.00
10:54 am 10:54 undefined 40 4.4 16 -8.9 38 38 undefined N/A 29.97 1015 N/A 0.00 0.00
11:54 am 11:54 undefined 43 6.1 16 -8.9 34 34 undefined N/A 29.95 1014 N/A 0.00 0.00
12:54 pm 12:54 undefined 45 7.2 15 -9.4 30 30 undefined N/A 29.91 1013 N/A 0.00 0.00
1:54 pm 13:54 undefined 48 8.9 16 -8.9 28 28 undefined N/A 29.88 1012 N/A 0.00 0.00
2:54 pm 14:54 undefined 50 10 17 -8.3 27 27 undefined N/A 29.87 1012 N/A 0.00 0.00
3:54 pm 15:54 undefined 49 9.4 16 -8.9 27 27 undefined N/A 29.87 1012 N/A 0.00 0.00
4:54 pm 16:54 undefined 46 7.8 21 -6.1 37 37 undefined N/A 29.88 1012 N/A 0.00 0.00
5:54 pm 17:54 undefined 43 6.1 24 -4.4 47 47 undefined N/A 29.89 1012 N/A 0.00 0.00
6:54 pm 18:54 undefined 42 5.6 24 -4.4 49 49 undefined N/A 29.90 1013 N/A 0.00 0.00
7:54 pm 19:54 undefined 42 5.6 23 -5 47 47 undefined N/A 29.92 1013 N/A 0.00 0.00
8:54 pm 20:54 undefined 41 5 23 -5 49 49 undefined N/A 29.92 1013 N/A 0.00 0.00
9:54 pm 21:54 undefined 39 3.9 22 -5.6 50 50 undefined N/A 29.93 1014 N/A 0.00 0.00
10:54 pm 22:54 undefined 39 3.9 22 -5.6 50 50 undefined N/A 29.93 1013 N/A 0.00 0.00
11:54 pm 23:54 undefined 39 3.9 23 -5 53 53 undefined N/A 29.91 1013 N/A 0.00 0.00

Powered by AerisWeather